Home   Weather   Pond Inlet   Past weeks

Flag for Canada Past Weather in Pond Inlet, Nunavut, Canada — Yesterday and Last 2 Weeks

Now
25 °F

Passing clouds.


Feels Like: 14 °F
Forecast: N/A
Wind: 12 mph from South

Location: Pond Inlet

Current Time: Oct 1, 2016 at 6:32:13 PM

Latest Report: Oct 1, 2016 at 5:01 PM


Visibility: 9 mi

Pressure: 29.95 "Hg

Humidity: 86%

Dew Point: 21 °F

Location of Pond InletLocation

Past Weather in Pond Inlet — Graph

°F

Pond Inlet Temperature Yesterday

Maximum temperature yesterday: 34 °F (at 12:00 AM)
Minimum temperature yesterday: 23 °F (at 10:00 PM)
Average temperature yesterday: 30 °F

High & Low Weather Summary for the Past Weeks

 TemperatureHumidityPressure
High37 °F (Sep 26, 11:00 PM)100% (Sep 17, 5:00 AM)30.16 "Hg (Sep 17, 5:00 AM)
Low21 °F (Sep 23, 1:00 AM)45% (Sep 29, 5:00 PM)29.64 "Hg (Sep 29, 5:00 PM)
Average30 °F87%29.89 "Hg
* Reported Sep 16 5:00 PM — Oct 1 5:01 PM, Pond Inlet, Weather by CustomWeather, © 2016

Note: Actual official high and low records may vary slightly from our data, if they occured in-between our weather recording intervals... More about our weather records

Advertising

Pond Inlet Weather History for the Previous 24 Hours

Scroll right to see more
 ConditionsComfort  
Time TempWeatherWind HumidityBarometerVisibility
5:01 PM
Sat, Oct 1
25 °FPassing clouds.12 mph86%29.95 "Hg9 mi
4:00 PM27 °FScattered clouds.8 mph80%29.95 "Hg30 mi
3:00 PM28 °FScattered clouds.10 mph74%29.95 "Hg30 mi
2:00 PM28 °FPartly sunny.13 mph80%29.96 "Hg30 mi
1:00 PM27 °FPassing clouds.16 mph80%29.96 "Hg9 mi
12:45 PM27 °FScattered clouds.15 mph80%29.96 "Hg9 mi
12:00 PM27 °FOvercast.9 mph86%29.97 "Hg9 mi
11:00 AM28 °FOvercast.15 mph86%29.97 "Hg9 mi
10:00 AM27 °FOvercast.16 mph86%29.97 "Hg9 mi
9:00 AM27 °FOvercast.14 mph86%29.98 "Hg9 mi
8:00 AM27 °FOvercast.9 mph86%29.98 "Hg9 mi
7:00 AM27 °FOvercast.12 mph86%29.98 "Hg9 mi
6:00 AM27 °FOvercast.10 mph86%29.97 "Hg9 mi
5:00 AM27 °FPassing clouds.9 mph86%29.98 "Hg9 mi
4:00 AM27 °FPassing clouds.9 mph86%29.97 "Hg9 mi
3:00 AM25 °FPassing clouds.13 mph93%29.96 "Hg9 mi
2:00 AM25 °FClear.14 mph86%29.95 "Hg9 mi
1:00 AM27 °FPassing clouds.15 mph93%29.95 "Hg9 mi
12:00 AM25 °FPassing clouds.17 mph93%29.94 "Hg9 mi
11:50 PM
Fri, Sep 30
27 °FPassing clouds.18 mph86%29.93 "Hg9 mi
11:03 PM25 °FPassing clouds.17 mph93%29.93 "Hg9 mi
10:00 PM23 °FClear.15 mph93%29.95 "Hg9 mi
9:00 PM25 °FClear.16 mph86%29.94 "Hg9 mi
8:00 PM25 °FClear.14 mph86%29.95 "Hg9 mi
7:00 PM25 °FPassing clouds.14 mph86%29.95 "Hg30 mi
6:00 PM25 °FPassing clouds.12 mph86%29.95 "Hg30 mi
Weather by CustomWeather, © 2016

See weather overviewHow to use our weather pages